User: anonymous   Login
Location: Borgo
(42.3939°N, 9.2791°E)
Time: 11:14:18
(UTC+00:00)
Language:

Okean-O - Orbit

View from above orbital plane
View from above orbital plane
View from above satellite
View from above satellite

Ground track
Ground track

The orbit data is extracted from the following two-line orbital elements,

1 25860U 99039A   21101.11198331  .00000041  00000-0  13445-4 0  9999
2 25860  98.1901 130.9148 0001440  69.1143 291.0220 14.76724009169530
Epoch (UTC): 11 April 2021 02:41:15
Eccentricity: 0.0001440
inclination: 98.1901°
perigee height: 638 km
apogee height: 640 km
right ascension of ascending node: 130.9148°
argument of perigee: 69.1143°
revolutions per day: 14.76724009
mean anomaly at epoch: 291.0220°
orbit number at epoch: 16953

The dashed part of the orbit path shows where the satellite is in the earth's shadow,  

DLR